Flag for France Weather past 2 weeks in Nantes, France

Now
55 °F

Sunny.


Feels Like: 52 °F
Forecast: 37 / 59 °F
Wind: 14 mph from Northeast

Location: Nantes Airport


UV Index: 3 (Moderate)

Visibility: 10 mi


Pressure: 29.80 "Hg

Humidity: 47%

Dew point: 36 °F

Location of NantesLocation

Historic Weather in Nantes

°F

Nantes temperature yesterday

Maximum temperature yesterday: 63 °F (at 3:30 PM)
Minimum temperature yesterday: 46 °F (at 6:00 AM)
Average temperature yesterday: 55 °F

Past Weeks' High & Low Weather Summary

 TemperatureHumidityPressure
High70 °F (Apr 17, 4:00 PM)100% (Apr 5, 1:00 AM)30.39 "Hg (Apr 5, 1:00 AM)
Low41 °F (Apr 10, 5:00 AM)28% (Apr 16, 4:30 PM)29.80 "Hg (Apr 19, 6:30 PM)
Average54 °F71%30.13 "Hg
* Reported Apr 4 7:00 PM — Apr 19 7:00 PM, Nantes, Weather by CustomWeather, © 2014

Note: Actual official high and low records may vary slightly from our data, if they occured in-between our weather recording intervals... More about our weather records

Advertising

Historic Weather Conditions — Data for Previous 24 hours

 ConditionsComfort  
Time TempWeatherWind HumidityBarometerVisibility
7:00 PM
Apr 19
55 °FPassing clouds.9 mph44%29.80 "HgN/A
6:30 PM57 °FPassing clouds.10 mph44%29.80 "HgN/A
6:00 PM55 °FPassing clouds.8 mph44%29.83 "HgN/A
5:30 PM55 °FPassing clouds.6 mph47%29.83 "HgN/A
4:30 PM55 °FPassing clouds.7 mph47%29.83 "HgN/A
4:00 PM55 °FSunny.6 mph44%29.86 "Hg10 mi
3:30 PM54 °FPassing clouds.9 mph47%29.86 "HgN/A
3:00 PM55 °FPassing clouds.8 mph47%29.86 "HgN/A
2:30 PM54 °FPassing clouds.8 mph51%29.89 "HgN/A
2:00 PM55 °FScattered clouds.10 mph51%29.89 "HgN/A
1:30 PM52 °FScattered clouds.10 mph54%29.89 "HgN/A
1:00 PM54 °FScattered clouds.10 mph54%29.92 "HgN/A
12:30 PM55 °FScattered clouds.10 mph55%29.92 "HgN/A
12:00 PM54 °FPassing clouds.12 mph58%29.92 "HgN/A
11:30 AM52 °FPassing clouds.9 mph62%29.92 "HgN/A
11:00 AM50 °FPassing clouds.10 mph71%29.95 "HgN/A
10:30 AM48 °FPassing clouds.10 mph71%29.95 "HgN/A
10:00 AM46 °FSunny.13 mph71%29.95 "Hg10 mi
9:30 AM45 °FPassing clouds.13 mph76%29.95 "HgN/A
9:00 AM45 °FSunny.14 mph76%29.95 "Hg10 mi
8:30 AM43 °FPassing clouds.8 mph81%29.95 "HgN/A
8:00 AM43 °FPassing clouds.8 mph76%29.95 "HgN/A
7:30 AM43 °FPassing clouds.7 mph76%29.95 "HgN/A
7:00 AM43 °FPassing clouds.10 mph76%29.95 "HgN/A
6:30 AM43 °FClear.9 mph76%29.95 "Hg10 mi
6:00 AM43 °FPassing clouds.7 mph76%29.95 "HgN/A
5:30 AM45 °FPassing clouds.8 mph71%29.95 "HgN/A
5:00 AM45 °FPassing clouds.7 mph71%29.95 "HgN/A
4:30 AM45 °FClear.6 mph71%29.95 "HgN/A
4:00 AM45 °FClear.5 mph71%29.98 "HgN/A
3:30 AM46 °FClear.7 mph66%29.98 "HgN/A
3:00 AM46 °FClear.7 mph66%29.98 "HgN/A
2:30 AM46 °FClear.6 mph66%29.98 "HgN/A
2:00 AM48 °FPassing clouds.8 mph62%29.98 "HgN/A
1:30 AM48 °FPassing clouds.8 mph62%29.98 "HgN/A
1:00 AM50 °FPassing clouds.10 mph62%30.01 "HgN/A
12:00 AM52 °FPassing clouds.9 mph58%30.01 "HgN/A
11:30 PM
Apr 18
54 °FPassing clouds.12 mph54%29.98 "HgN/A
11:00 PM55 °FPassing clouds.8 mph51%29.98 "HgN/A
10:30 PM54 °FPassing clouds.5 mph54%29.98 "HgN/A
10:00 PM55 °FPassing clouds.6 mph51%29.98 "HgN/A
9:30 PM57 °FPassing clouds.3 mph48%29.98 "HgN/A
9:00 PM59 °FPassing clouds.6 mph45%29.98 "HgN/A
8:30 PM57 °FPassing clouds.7 mph51%29.98 "HgN/A
8:00 PM61 °FPassing clouds.8 mph45%29.98 "HgN/A
Weather by CustomWeather, © 2014

See weather overview